Wind_Speed
19 15 14 12 7 5 3 6 7 9 8 9 6 4 2 2 4 4 6 6 8 9 7 7 11 13 14 15 14 18 20 18 20 18 15 12 15 26 35 35 29 21 26
18 16 14 9 6 4 3 5 11 11 11 6 2 2 4 6 4 5 7 9 9 8 9 10 11 10 10 13 16 20 23 19 20 24 17 18 21 23 26 32 38 41 47
18 16 11 7 6 4 6 7 8 9 10 5 2 2 4 5 5 4 5 7 13 12 10 11 11 10 11 12 17 22 21 21 25 28 28 21 27 32 43 44 40 36 37
17 14 9 8 8 5 10 7 14 15 9 5 4 2 4 6 5 6 5 3 6 11 9 10 10 10 9 9 10 17 23 24 26 29 30 36 38 42 46 45 43 39 38
16 13 8 5 5 10 13 12 13 10 7 6 4 2 2 5 6 7 5 3 7 9 5 9 10 8 8 10 9 20 24 29 33 35 40 42 41 40 44 42 37 35 29
16 12 6 6 10 12 11 14 12 11 7 8 5 1 3 4 6 6 5 6 9 9 10 13 14 16 16 9 10 13 26 33 36 40 44 46 43 46 42 38 39 35 28
18 10 7 8 10 13 13 11 12 9 9 7 6 4 4 5 5 4 4 6 9 11 9 12 14 13 11 13 14 25 28 33 32 36 46 47 48 42 38 36 31 30 33
16 11 11 9 13 14 12 12 11 10 10 10 7 5 5 6 3 3 6 9 10 8 9 11 11 12 12 17 24 30 28 31 32 38 47 44 39 33 33 32 32 30 29
16 15 12 12 16 15 12 13 11 12 13 11 10 8 6 3 1 4 7 10 9 10 11 12 13 14 20 23 29 29 35 37 35 36 38 31 33 32 27 29 29 30 29
18 15 13 14 16 14 10 9 9 11 12 12 11 7 4 4 5 6 7 10 11 14 15 13 14 19 22 25 27 30 31 35 32 35 31 27 26 23 25 26 28 27 26
20 12 16 15 13 12 10 9 8 10 11 12 11 8 5 7 7 8 8 7 9 14 18 20 18 20 22 25 27 28 26 33 25 26 32 26 25 25 27 23 19 16 19
22 17 18 16 13 11 9 10 10 8 8 9 11 10 9 9 10 10 9 9 8 9 19 20 20 19 24 23 23 27 27 27 27 28 28 28 29 30 23 19 17 13 12
25 21 20 18 15 11 9 14 12 9 8 7 9 10 13 11 11 12 11 11 8 10 18 21 22 20 21 23 21 24 27 27 28 28 30 30 27 24 20 17 15 14 13
28 24 23 18 13 8 10 10 9 9 9 7 9 11 12 14 15 14 12 13 12 17 20 22 22 19 21 23 23 21 28 27 26 29 30 26 21 21 22 19 17 16 16
29 25 24 20 16 10 11 12 10 7 5 4 6 8 13 16 16 14 12 17 19 20 22 22 23 24 25 23 25 26 28 31 28 25 24 24 23 22 23 23 21 19 19
30 27 25 22 19 12 12 14 11 9 6 5 3 3 8 11 16 13 13 15 21 23 22 22 22 22 25 27 29 29 27 31 27 22 22 21 22 23 24 25 24 22 21
30 27 26 23 22 17 15 16 13 11 10 10 10 7 6 12 16 15 17 16 20 22 22 21 20 20 21 24 26 27 28 27 24 23 22 22 22 23 24 25 26 25 24
26 26 26 25 22 20 17 17 15 13 12 12 13 11 9 9 16 19 20 20 22 22 20 19 18 18 21 22 25 25 25 25 24 22 20 19 20 21 24 25 26 26 26
27 30 28 26 23 20 19 18 19 17 15 13 13 15 15 14 15 21 23 25 26 24 23 22 20 20 21 23 26 26 25 24 22 21 21 22 24 27 28 29 29 27 26
30 27 29 27 25 23 21 23 22 21 21 20 19 18 19 22 21 25 27 28 29 28 25 25 25 24 24 25 27 27 26 24 23 23 24 26 25 25 28 31 33 32 30
30 29 28 28 27 26 26 27 27 27 26 26 23 22 23 25 25 26 27 30 31 31 31 30 29 30 29 28 28 29 30 30 29 29 30 30 32 35 31 30 31 32 33
34 32 33 31 29 29 27 28 30 30 29 28 27 27 26 28 29 30 30 30 31 31 31 33 33 33 33 33 33 34 36 35 33 33 34 33 33 34 34 35 36 38 39
32 35 36 35 33 32 29 28 32 32 33 33 30 29 32 32 31 30 30 32 33 33 32 34 36 37 38 38 38 37 37 39 40 37 35 34 36 37 38 38 38 41 42
14 22 31 38 38 33 32 33 30 32 34 35 35 34 32 33 33 32 30 29 29 30 32 35 37 38 39 40 42 45 45 43 41 38 37 41 43 41 40 40 40 40 39
9 8 7 22 32 37 35 34 35 35 34 36 39 38 36 34 35 34 33 32 32 31 32 32 32 33 36 38 40 41 41 40 42 44 45 44 42 38 37 39 40 40 40
5 7 9 7 3 23 32 37 38 37 40 38 37 41 41 39 38 37 36 35 34 34 33 33 33 33 31 30 31 33 34 37 40 40 38 37 39 39 40 41 41 41 40
Wind_Direction
166 165 154 144 166 186 189 200 187 174 152 138 126 115 21 351 303 276 238 225 206 209 215 219 195 193 201 213 212 202 199 207 186 168 179 176 179 189 183 171 172 171 175
156 148 144 156 202 195 185 181 178 161 153 148 141 302 325 321 317 301 249 232 210 212 211 213 207 213 214 210 201 198 199 201 187 164 165 170 179 184 180 171 170 169 159
148 163 154 178 214 207 184 170 185 179 156 186 196 282 314 328 317 317 312 216 217 216 218 213 215 204 206 210 199 200 198 182 178 159 159 159 162 165 147 156 150 144 144
155 161 172 200 220 209 172 155 161 159 168 192 198 239 303 330 346 344 336 198 191 191 188 202 194 196 205 195 193 166 170 169 167 157 159 154 152 149 149 143 144 142 146
164 163 177 207 198 172 164 158 150 167 175 180 206 236 313 348 357 10 15 93 160 176 194 179 176 180 167 122 159 169 167 158 157 158 151 152 149 147 145 145 142 147 145
180 167 181 187 150 158 169 168 171 178 185 205 212 301 329 2 11 29 46 111 134 131 125 134 139 148 151 146 163 162 171 163 156 154 155 152 152 155 152 154 151 152 146
174 172 178 154 170 161 156 164 172 187 188 208 211 248 310 336 2 39 85 116 140 142 141 145 140 142 146 145 175 174 176 167 163 163 158 158 158 159 160 157 156 158 155
172 179 169 179 164 157 169 175 184 188 200 214 224 243 296 313 347 49 117 122 129 127 135 141 140 140 145 147 161 166 165 167 166 167 165 160 158 159 163 163 161 158 152
181 183 174 171 162 160 173 184 202 206 213 220 230 252 281 266 161 115 141 143 130 124 134 137 135 121 135 145 152 155 159 160 159 157 156 157 163 163 169 168 163 161 161
179 176 165 163 158 164 179 193 212 214 219 227 231 233 249 203 165 145 144 150 138 131 130 136 132 130 132 138 143 146 145 152 156 162 160 156 159 165 173 174 168 171 166
180 176 161 161 167 178 183 198 211 191 198 219 212 212 191 177 174 160 152 164 147 133 138 141 138 138 140 141 147 148 146 157 160 148 158 163 161 162 161 170 174 178 174
182 175 165 164 173 189 204 202 190 182 179 189 195 195 186 176 169 162 154 163 146 139 146 146 143 142 147 148 148 159 155 157 157 164 166 168 165 165 167 168 172 181 198
190 179 173 176 190 199 204 178 182 183 189 185 186 187 180 171 171 166 163 158 147 144 144 145 144 148 153 157 150 162 166 163 163 168 166 164 164 168 169 168 178 192 196
185 183 183 181 180 182 187 181 181 179 184 181 173 179 180 170 170 165 164 161 153 147 146 148 150 157 156 160 172 170 171 167 169 170 171 172 174 180 189 187 193 201 213
186 188 190 186 180 174 179 178 182 166 153 144 167 178 179 176 171 172 165 158 159 153 143 148 155 158 161 167 174 174 179 180 172 170 179 189 195 200 201 201 206 213 224
190 192 194 189 183 185 176 178 187 203 190 201 201 160 165 179 176 167 157 157 161 163 158 150 152 158 165 168 173 177 178 185 192 190 187 194 203 207 207 213 222 227 234
200 199 197 195 192 190 188 190 193 209 219 197 202 167 151 178 183 174 163 160 169 173 175 169 167 166 167 174 178 181 181 184 190 197 202 208 212 215 219 223 229 235 244
204 210 205 204 205 203 203 199 207 217 200 185 202 202 183 169 186 182 177 174 181 187 189 191 191 191 192 191 191 192 191 192 195 200 207 215 220 223 225 229 233 240 250
205 209 213 214 214 216 211 212 217 220 222 214 198 191 193 188 188 194 195 198 193 195 199 202 199 196 197 200 197 197 198 204 211 224 235 240 239 239 243 243 246 251 262
210 213 216 217 216 215 221 222 222 224 229 233 228 220 204 197 200 202 207 209 212 212 209 209 207 204 201 200 204 209 213 218 225 233 236 239 244 247 247 249 251 253 257
213 214 220 219 217 218 221 228 229 230 232 233 236 235 231 228 224 221 218 218 220 223 223 221 216 216 217 214 214 218 224 228 231 235 238 241 244 246 246 249 252 256 263
222 222 219 221 224 222 224 224 232 233 234 238 239 240 237 236 236 235 233 232 232 230 228 227 226 225 222 222 224 228 234 237 239 240 242 244 246 248 251 256 261 261 260
227 226 225 227 228 229 226 229 233 235 236 238 242 242 239 236 239 241 243 243 241 240 238 236 235 234 234 235 234 234 237 241 243 246 249 250 251 252 255 257 259 260 261
200 227 233 230 231 234 235 234 233 238 242 241 242 246 245 244 247 249 248 246 244 245 245 244 243 244 244 243 242 241 240 242 244 247 249 251 253 255 257 258 260 262 264
106 146 182 233 240 240 242 241 238 238 240 245 246 249 250 250 250 255 255 254 253 252 251 250 251 252 252 252 249 248 248 246 245 247 249 253 256 258 257 257 260 261 262
84 82 82 90 190 230 240 248 251 249 245 244 245 247 251 253 254 254 257 259 258 259 260 260 260 260 261 262 260 257 254 252 251 250 248 249 254 258 261 262 263 263 262
Height
1421 1425 1428 1430 1434 1436 1438 1439 1440 1442 1444 1445 1445 1446 1445 1444 1444 1443 1442 1443 1444 1445 1445 1446 1447 1449 1450 1451 1451 1453 1457 1461 1464 1470 1473 1476 1478 1479 1479 1485 1493 1499 1504
1422 1425 1428 1431 1433 1435 1437 1438 1440 1442 1444 1445 1445 1445 1445 1444 1443 1441 1441 1441 1442 1442 1443 1445 1446 1447 1448 1448 1450 1451 1456 1459 1463 1467 1473 1476 1477 1481 1484 1488 1494 1501 1506
1423 1425 1428 1431 1433 1435 1436 1438 1440 1442 1444 1445 1445 1445 1444 1443 1442 1440 1439 1438 1438 1441 1442 1443 1445 1445 1445 1446 1448 1450 1454 1459 1464 1467 1473 1477 1480 1483 1486 1492 1496 1506 1515
1423 1425 1428 1430 1432 1434 1436 1438 1438 1443 1444 1445 1445 1445 1444 1443 1442 1440 1437 1436 1438 1439 1441 1442 1443 1444 1445 1445 1447 1450 1453 1458 1464 1469 1475 1478 1483 1488 1490 1496 1506 1512 1518
1423 1425 1427 1429 1431 1433 1436 1438 1441 1443 1444 1445 1445 1445 1445 1444 1442 1440 1439 1437 1438 1439 1440 1441 1442 1444 1445 1446 1448 1451 1455 1459 1465 1470 1476 1481 1486 1491 1495 1503 1508 1515 1522
1422 1425 1427 1429 1431 1433 1435 1438 1441 1443 1444 1444 1445 1446 1446 1444 1443 1442 1441 1439 1440 1440 1441 1441 1442 1444 1446 1448 1451 1455 1458 1459 1466 1473 1477 1482 1489 1495 1500 1505 1512 1518 1524
1423 1425 1427 1429 1432 1434 1436 1439 1441 1443 1444 1445 1446 1446 1446 1445 1444 1443 1443 1442 1442 1443 1443 1443 1443 1445 1447 1449 1451 1455 1461 1465 1469 1471 1479 1484 1490 1497 1502 1509 1515 1520 1523
1422 1424 1426 1429 1432 1434 1437 1439 1441 1443 1444 1445 1445 1446 1447 1446 1445 1444 1444 1444 1444 1445 1446 1446 1447 1448 1449 1451 1454 1458 1464 1471 1475 1478 1484 1490 1497 1502 1508 1512 1517 1523 1528
1422 1424 1427 1429 1432 1435 1437 1439 1440 1442 1443 1444 1446 1446 1447 1446 1446 1446 1446 1447 1447 1448 1449 1450 1451 1452 1454 1456 1459 1462 1467 1472 1479 1486 1492 1498 1503 1507 1512 1517 1521 1525 1530
1421 1424 1427 1429 1432 1435 1437 1439 1440 1441 1442 1443 1445 1446 1447 1447 1447 1448 1448 1449 1449 1450 1452 1454 1457 1457 1460 1463 1466 1470 1474 1480 1486 1492 1498 1503 1508 1512 1516 1521 1523 1527 1530
1420 1424 1427 1430 1432 1435 1437 1438 1439 1440 1441 1442 1444 1445 1446 1447 1448 1449 1450 1451 1452 1453 1455 1457 1460 1463 1466 1470 1474 1479 1483 1486 1491 1496 1501 1506 1510 1514 1519 1524 1528 1531 1532
1419 1423 1426 1429 1432 1434 1436 1438 1439 1440 1441 1442 1444 1445 1446 1448 1449 1450 1452 1454 1455 1456 1458 1460 1463 1467 1471 1476 1479 1483 1486 1490 1495 1499 1503 1507 1511 1516 1521 1525 1529 1532 1536
1419 1422 1426 1429 1432 1435 1436 1437 1439 1441 1442 1442 1443 1445 1447 1448 1450 1452 1453 1456 1458 1459 1461 1464 1467 1470 1474 1479 1483 1486 1489 1492 1496 1500 1505 1509 1514 1520 1523 1526 1529 1532 1534
1417 1421 1425 1429 1432 1435 1436 1438 1439 1440 1442 1443 1444 1445 1447 1449 1451 1453 1454 1457 1459 1462 1463 1466 1470 1473 1477 1480 1484 1488 1493 1496 1499 1503 1507 1512 1517 1521 1523 1527 1529 1531 1533
1416 1420 1424 1428 1431 1433 1436 1439 1440 1442 1443 1444 1445 1446 1447 1449 1452 1454 1456 1458 1461 1464 1466 1468 1471 1474 1477 1481 1485 1489 1493 1497 1501 1506 1510 1514 1517 1520 1522 1525 1527 1529 1529
1415 1418 1423 1427 1431 1434 1436 1439 1440 1443 1444 1446 1448 1448 1449 1452 1454 1456 1459 1461 1464 1466 1468 1470 1472 1474 1477 1481 1485 1489 1494 1498 1503 1507 1511 1513 1515 1517 1520 1522 1523 1525 1526
1414 1418 1421 1425 1429 1433 1436 1439 1441 1443 1444 1446 1448 1450 1451 1452 1455 1458 1460 1463 1467 1469 1470 1473 1475 1477 1480 1483 1487 1490 1493 1497 1501 1505 1508 1510 1513 1515 1517 1519 1522 1523 1524
1413 1416 1420 1423 1427 1431 1435 1438 1440 1442 1444 1446 1448 1450 1453 1454 1456 1459 1461 1464 1466 1470 1472 1474 1476 1478 1481 1484 1487 1490 1493 1496 1498 1501 1505 1508 1510 1512 1513 1515 1517 1518 1519
1409 1414 1417 1421 1425 1428 1432 1435 1438 1441 1443 1446 1448 1450 1452 1455 1456 1459 1461 1462 1464 1467 1469 1472 1475 1477 1479 1482 1486 1489 1492 1494 1497 1499 1502 1504 1507 1509 1510 1511 1512 1514 1515
1406 1410 1414 1418 1422 1426 1429 1433 1436 1438 1441 1443 1446 1448 1450 1453 1454 1456 1459 1461 1463 1465 1467 1469 1472 1475 1477 1480 1483 1487 1489 1492 1494 1496 1498 1500 1501 1503 1503 1504 1506 1506 1506
1404 1407 1411 1414 1418 1422 1425 1428 1432 1435 1437 1440 1442 1444 1447 1448 1450 1453 1455 1456 1459 1461 1464 1466 1469 1471 1473 1476 1479 1481 1484 1486 1488 1490 1491 1492 1494 1495 1496 1497 1498 1498 1500
1401 1404 1406 1409 1413 1417 1420 1424 1427 1430 1432 1435 1438 1440 1442 1444 1445 1447 1449 1452 1454 1456 1459 1462 1464 1466 1468 1470 1472 1475 1476 1478 1480 1482 1484 1486 1488 1489 1490 1490 1490 1492 1493
1397 1400 1402 1404 1408 1411 1415 1419 1422 1424 1427 1429 1432 1435 1436 1437 1439 1441 1443 1445 1447 1450 1452 1455 1457 1459 1461 1463 1466 1468 1469 1470 1473 1476 1478 1480 1481 1482 1483 1484 1484 1483 1483
1393 1396 1397 1400 1403 1407 1410 1414 1416 1419 1421 1423 1425 1427 1430 1431 1432 1434 1436 1438 1440 1442 1444 1446 1448 1449 1452 1454 1456 1458 1460 1462 1465 1467 1469 1470 1471 1473 1474 1474 1474 1474 1475
1391 1392 1394 1396 1399 1402 1405 1407 1410 1412 1414 1415 1417 1418 1421 1424 1425 1427 1429 1431 1433 1435 1436 1437 1439 1439 1441 1443 1445 1447 1450 1452 1454 1457 1460 1461 1461 1462 1463 1464 1465 1465 1466
1389 1392 1393 1393 1393 1394 1398 1400 1402 1405 1406 1408 1409 1410 1412 1414 1416 1418 1420 1422 1424 1426 1428 1429 1430 1431 1432 1433 1434 1436 1438 1441 1443 1446 1449 1451 1451 1452 1453 1454 1454 1454 1455